Flag for Germany Weather past 2 weeks in Springe, Lower Saxony, Germany

Now
54 °F

Cool.


Feels Like: 52 °F
Forecast: 49 / 60 °F
Wind: 7 mph from Southwest

Location: Wunstorf Airport

Current Time: Apr 26, 2015 at 1:25:28 AM

Latest Report: Apr 26, 2015 at 12:20 AM


Visibility: 3 mi

Pressure: 29.74 "Hg

Humidity: 88%

Dew point: 50 °F

Location of SpringeLocation

Historic Weather in Springe — Graph

°F

Springe temperature yesterday

Maximum temperature yesterday: 59 °F (at 1:20 PM)
Minimum temperature yesterday: 48 °F (at 1:20 AM)
Average temperature yesterday: 55 °F

Past Weeks' High & Low Weather Summary

 TemperatureHumidityPressure
High72 °F (Apr 15, 3:20 PM)100% (Apr 23, 5:20 AM)30.42 "Hg (Apr 23, 5:20 AM)
Low34 °F (Apr 14, 5:20 AM)28% (Apr 21, 5:20 PM)29.71 "Hg (Apr 25, 7:20 PM)
Average51 °F64%30.15 "Hg
* Reported Apr 10 11:20 PM — Apr 25 11:20 PM, Springe, Weather by CustomWeather, © 2015

Note: Actual official high and low records may vary slightly from our data, if they occured in-between our weather recording intervals... More about our weather records

Advertising

Springe weather history for previous 24 hours

 ConditionsComfort  
Time TempWeatherWind HumidityBarometerVisibility
11:20 PM
Sat, Apr 25
54 °FCool.6 mph88%29.74 "Hg2 mi
10:20 PM55 °FCool.8 mph82%29.74 "Hg3 mi
9:20 PM54 °FCool.7 mph88%29.74 "Hg3 mi
8:20 PM55 °FCool.7 mph82%29.71 "Hg3 mi
7:20 PM57 °FCool.6 mph82%29.71 "Hg3 mi
6:20 PM57 °FCool.7 mph77%29.74 "Hg3 mi
5:20 PM57 °FCool.10 mph82%29.74 "Hg3 mi
4:20 PM57 °FCool.12 mph82%29.74 "Hg3 mi
3:20 PM55 °FCool.9 mph88%29.74 "Hg2 mi
2:20 PM57 °FCool.7 mph82%29.74 "Hg2 mi
1:20 PM59 °FCool.7 mph77%29.74 "Hg3 mi
12:20 PM57 °FCool.6 mph77%29.74 "Hg3 mi
11:20 AM55 °FCool.7 mph82%29.77 "Hg2 mi
10:20 AM57 °FCool.6 mph72%29.77 "Hg3 mi
9:20 AM57 °FCool.2 mph77%29.77 "Hg3 mi
8:20 AM55 °FCool.3 mph82%29.74 "Hg3 mi
7:20 AM55 °FCool.5 mph82%29.77 "Hg2 mi
6:20 AM57 °FCool.14 mph77%29.74 "Hg2 mi
5:20 AM55 °FRefreshingly cool.10 mph59%29.74 "Hg3 mi
4:20 AM50 °FCool.10 mph71%29.74 "Hg3 mi
3:20 AM50 °FCool.7 mph71%29.77 "Hg3 mi
2:20 AM50 °FCool.7 mph67%29.77 "Hg3 mi
1:20 AM48 °FCool.7 mph71%29.80 "Hg3 mi
Weather by CustomWeather, © 2015

See weather overviewHow to use our weather pages